Year,Month,Day,Hour,Minute,Value (Times are PST for temperature in C)
2015,06,10,00,00,16.20
2015,06,10,00,01,16.20
2015,06,10,00,02,16.20
2015,06,10,00,03,16.20
2015,06,10,00,04,16.20
2015,06,10,00,05,16.20
2015,06,10,00,06,16.10
2015,06,10,00,07,16.10
2015,06,10,00,08,16.10
2015,06,10,00,09,16.10
2015,06,10,00,10,16.10
2015,06,10,00,11,16.10
2015,06,10,00,12,16.10
2015,06,10,00,13,16.10
2015,06,10,00,14,16.10
2015,06,10,00,15,16.10
2015,06,10,00,16,16.10
2015,06,10,00,17,16.10
2015,06,10,00,18,16.10
2015,06,10,00,19,16.10
2015,06,10,00,20,16.10
2015,06,10,00,21,16.10
2015,06,10,00,22,16.00
2015,06,10,00,23,16.00
2015,06,10,00,24,16.00
2015,06,10,00,25,15.90
2015,06,10,00,26,15.90
2015,06,10,00,27,15.90
2015,06,10,00,28,15.90
2015,06,10,00,29,15.90
2015,06,10,00,30,15.90
2015,06,10,00,31,15.90
2015,06,10,00,32,15.80
2015,06,10,00,33,15.80
2015,06,10,00,34,15.80
2015,06,10,00,35,15.70
2015,06,10,00,36,15.70
2015,06,10,00,37,15.60
2015,06,10,00,38,15.60
2015,06,10,00,39,15.60
2015,06,10,00,40,15.50
2015,06,10,00,41,15.50
2015,06,10,00,42,15.40
2015,06,10,00,43,15.40
2015,06,10,00,44,15.40
2015,06,10,00,45,15.40
2015,06,10,00,46,15.40
2015,06,10,00,47,15.40
2015,06,10,00,48,15.50
2015,06,10,00,49,15.50
2015,06,10,00,50,15.50
2015,06,10,00,51,15.50
2015,06,10,00,52,15.60
2015,06,10,00,53,15.60
2015,06,10,00,54,15.60
2015,06,10,00,55,15.60
2015,06,10,00,56,15.60
2015,06,10,00,57,15.60
2015,06,10,00,58,15.60
2015,06,10,00,59,15.70
2015,06,10,01,00,15.70
2015,06,10,01,01,15.70
2015,06,10,01,02,15.70
2015,06,10,01,03,15.60
2015,06,10,01,04,15.60
2015,06,10,01,05,15.60
2015,06,10,01,06,15.60
2015,06,10,01,07,15.60
2015,06,10,01,08,15.50
2015,06,10,01,09,15.50
2015,06,10,01,10,15.50
2015,06,10,01,11,15.40
2015,06,10,01,12,15.40
2015,06,10,01,13,15.40
2015,06,10,01,14,15.40
2015,06,10,01,15,15.30
2015,06,10,01,16,15.30
2015,06,10,01,17,15.20
2015,06,10,01,18,15.20
2015,06,10,01,19,15.20
2015,06,10,01,20,15.20
2015,06,10,01,21,15.20
2015,06,10,01,22,15.10
2015,06,10,01,23,15.10
2015,06,10,01,24,15.10
2015,06,10,01,25,15.10
2015,06,10,01,26,15.10
2015,06,10,01,27,15.10
2015,06,10,01,28,15.10
2015,06,10,01,29,15.10
2015,06,10,01,30,15.00
2015,06,10,01,31,15.00
2015,06,10,01,32,15.00
2015,06,10,01,33,14.90
2015,06,10,01,34,14.90
2015,06,10,01,35,14.90
2015,06,10,01,36,14.80
2015,06,10,01,37,14.80
2015,06,10,01,38,14.80
2015,06,10,01,39,14.70
2015,06,10,01,40,14.70
2015,06,10,01,41,14.70
2015,06,10,01,42,14.60
2015,06,10,01,43,14.60
2015,06,10,01,44,14.60
2015,06,10,01,45,14.60
2015,06,10,01,46,14.60
2015,06,10,01,47,14.60
2015,06,10,01,48,14.60
2015,06,10,01,49,14.50
2015,06,10,01,50,14.50
2015,06,10,01,51,14.50
2015,06,10,01,52,14.50
2015,06,10,01,53,14.40
2015,06,10,01,54,14.40
2015,06,10,01,55,14.40
2015,06,10,01,56,14.30
2015,06,10,01,57,14.30
2015,06,10,01,58,14.30
2015,06,10,01,59,14.30
2015,06,10,02,00,14.30
2015,06,10,02,01,14.20
2015,06,10,02,02,14.20
2015,06,10,02,03,14.20
2015,06,10,02,04,14.20
2015,06,10,02,05,14.20
2015,06,10,02,06,14.10
2015,06,10,02,07,14.10
2015,06,10,02,08,14.10
2015,06,10,02,09,14.00
2015,06,10,02,10,14.00
2015,06,10,02,11,13.90
2015,06,10,02,12,13.90
2015,06,10,02,13,13.90
2015,06,10,02,14,13.80
2015,06,10,02,15,13.80
2015,06,10,02,16,13.80
2015,06,10,02,17,13.80
2015,06,10,02,18,13.80
2015,06,10,02,19,13.70
2015,06,10,02,20,13.70
2015,06,10,02,21,13.70
2015,06,10,02,22,13.70
2015,06,10,02,23,13.70
2015,06,10,02,24,13.70
2015,06,10,02,25,13.60
2015,06,10,02,26,13.60
2015,06,10,02,27,13.60
2015,06,10,02,28,13.60
2015,06,10,02,29,13.50
2015,06,10,02,30,13.50
2015,06,10,02,31,13.50
2015,06,10,02,32,13.40
2015,06,10,02,33,13.40
2015,06,10,02,34,13.40
2015,06,10,02,35,13.30
2015,06,10,02,36,13.30
2015,06,10,02,37,13.30
2015,06,10,02,38,13.20
2015,06,10,02,39,13.20
2015,06,10,02,40,13.20
2015,06,10,02,41,13.20
2015,06,10,02,42,13.10
2015,06,10,02,43,13.10
2015,06,10,02,44,13.10
2015,06,10,02,45,13.10
2015,06,10,02,46,13.10
2015,06,10,02,47,13.00
2015,06,10,02,48,13.00
2015,06,10,02,49,13.10
2015,06,10,02,50,13.10
2015,06,10,02,51,13.10
2015,06,10,02,52,13.10
2015,06,10,02,53,13.10
2015,06,10,02,54,13.10
2015,06,10,02,55,13.10
2015,06,10,02,56,13.10
2015,06,10,02,57,13.00
2015,06,10,02,58,13.00
2015,06,10,02,59,13.00
2015,06,10,03,00,13.00
2015,06,10,03,01,13.00
2015,06,10,03,02,13.00
2015,06,10,03,03,12.90
2015,06,10,03,04,12.90
2015,06,10,03,05,12.90
2015,06,10,03,06,12.90
2015,06,10,03,07,12.90
2015,06,10,03,08,12.90
2015,06,10,03,09,12.90
2015,06,10,03,10,12.90
2015,06,10,03,11,12.90
2015,06,10,03,12,12.90
2015,06,10,03,13,12.80
2015,06,10,03,14,12.80
2015,06,10,03,15,12.80
2015,06,10,03,16,12.80
2015,06,10,03,17,12.80
2015,06,10,03,18,12.80
2015,06,10,03,19,12.80
2015,06,10,03,20,12.80
2015,06,10,03,21,12.80
2015,06,10,03,22,12.70
2015,06,10,03,23,12.70
2015,06,10,03,24,12.70
2015,06,10,03,25,12.70
2015,06,10,03,26,12.70
2015,06,10,03,27,12.70
2015,06,10,03,28,12.80
2015,06,10,03,29,12.80
2015,06,10,03,30,12.80
2015,06,10,03,31,12.80
2015,06,10,03,32,12.80
2015,06,10,03,33,12.80
2015,06,10,03,34,12.80
2015,06,10,03,35,12.80
2015,06,10,03,36,12.80
2015,06,10,03,37,12.80
2015,06,10,03,38,12.80
2015,06,10,03,39,12.70
2015,06,10,03,40,12.70
2015,06,10,03,41,12.70
2015,06,10,03,42,12.70
2015,06,10,03,43,12.70
2015,06,10,03,44,12.70
2015,06,10,03,45,12.60
2015,06,10,03,46,12.60
2015,06,10,03,47,12.60
2015,06,10,03,48,12.60
2015,06,10,03,49,12.60
2015,06,10,03,50,12.60
2015,06,10,03,51,12.50
2015,06,10,03,52,12.50
2015,06,10,03,53,12.40
2015,06,10,03,54,12.40
2015,06,10,03,55,12.40
2015,06,10,03,56,12.40
2015,06,10,03,57,12.40
2015,06,10,03,58,12.30
2015,06,10,03,59,12.30
2015,06,10,04,00,12.30
2015,06,10,04,01,12.30
2015,06,10,04,02,12.30
2015,06,10,04,03,12.30
2015,06,10,04,04,12.20
2015,06,10,04,05,12.20
2015,06,10,04,06,12.20
2015,06,10,04,07,12.20
2015,06,10,04,08,12.20
2015,06,10,04,09,12.10
2015,06,10,04,10,12.10
2015,06,10,04,11,12.10
2015,06,10,04,12,12.10
2015,06,10,04,13,12.10
2015,06,10,04,14,12.10
2015,06,10,04,15,12.10
2015,06,10,04,16,12.10
2015,06,10,04,17,12.10
2015,06,10,04,18,12.10
2015,06,10,04,19,12.10
2015,06,10,04,20,12.10
2015,06,10,04,21,12.10
2015,06,10,04,22,12.10
2015,06,10,04,23,12.10
2015,06,10,04,24,12.10
2015,06,10,04,25,12.10
2015,06,10,04,26,12.00
2015,06,10,04,27,12.00
2015,06,10,04,28,12.00
2015,06,10,04,29,12.00
2015,06,10,04,30,12.00
2015,06,10,04,31,12.00
2015,06,10,04,32,11.90
2015,06,10,04,33,11.90
2015,06,10,04,34,11.90
2015,06,10,04,35,11.90
2015,06,10,04,36,12.00
2015,06,10,04,37,12.00
2015,06,10,04,38,12.00
2015,06,10,04,39,12.00
2015,06,10,04,40,12.00
2015,06,10,04,41,11.90
2015,06,10,04,42,11.90
2015,06,10,04,43,11.90
2015,06,10,04,44,11.90
2015,06,10,04,45,11.90
2015,06,10,04,46,11.90
2015,06,10,04,47,11.90
2015,06,10,04,48,11.90
2015,06,10,04,49,11.90
2015,06,10,04,50,11.80
2015,06,10,04,51,11.80
2015,06,10,04,52,11.80
2015,06,10,04,53,11.80
2015,06,10,04,54,11.80
2015,06,10,04,55,11.80
2015,06,10,04,56,11.80
2015,06,10,04,57,11.80
2015,06,10,04,58,11.70
2015,06,10,04,59,11.70
2015,06,10,05,00,11.70
2015,06,10,05,01,11.70
2015,06,10,05,02,11.70
2015,06,10,05,03,11.60
2015,06,10,05,04,11.60
2015,06,10,05,05,11.60
2015,06,10,05,06,11.60
2015,06,10,05,07,11.50
2015,06,10,05,08,11.50
2015,06,10,05,09,11.50
2015,06,10,05,10,11.40
2015,06,10,05,11,11.40
2015,06,10,05,12,11.40
2015,06,10,05,13,11.40
2015,06,10,05,14,11.30
2015,06,10,05,15,11.30
2015,06,10,05,16,11.30
2015,06,10,05,17,11.20
2015,06,10,05,18,11.20
2015,06,10,05,19,11.20
2015,06,10,05,20,11.20
2015,06,10,05,21,11.20
2015,06,10,05,22,11.20
2015,06,10,05,23,11.10
2015,06,10,05,24,11.10
2015,06,10,05,25,11.20
2015,06,10,05,26,11.20
2015,06,10,05,27,11.20
2015,06,10,05,28,11.20
2015,06,10,05,29,11.20
2015,06,10,05,30,11.20
2015,06,10,05,31,11.20
2015,06,10,05,32,11.10
2015,06,10,05,33,11.10
2015,06,10,05,34,11.10
2015,06,10,05,35,11.10
2015,06,10,05,36,11.10
2015,06,10,05,37,11.10
2015,06,10,05,38,11.20
2015,06,10,05,39,11.20
2015,06,10,05,40,11.20
2015,06,10,05,41,11.20
2015,06,10,05,42,11.20
2015,06,10,05,43,11.20
2015,06,10,05,44,11.20
2015,06,10,05,45,11.10
2015,06,10,05,46,11.10
2015,06,10,05,47,11.10
2015,06,10,05,48,11.10
2015,06,10,05,49,11.10
2015,06,10,05,50,11.10
2015,06,10,05,51,11.10
2015,06,10,05,52,11.10
2015,06,10,05,53,11.10
2015,06,10,05,54,11.10
2015,06,10,05,55,11.20
2015,06,10,05,56,11.20
2015,06,10,05,57,11.20
2015,06,10,05,58,11.20
2015,06,10,05,59,11.20
2015,06,10,06,00,11.30
2015,06,10,06,01,11.30
2015,06,10,06,02,11.30
2015,06,10,06,03,11.30
2015,06,10,06,04,11.30
2015,06,10,06,05,11.30
2015,06,10,06,06,11.30
2015,06,10,06,07,11.40
2015,06,10,06,08,11.40
2015,06,10,06,09,11.50
2015,06,10,06,10,11.60
2015,06,10,06,11,11.60
2015,06,10,06,12,11.60
2015,06,10,06,13,11.70
2015,06,10,06,14,11.70
2015,06,10,06,15,11.70
2015,06,10,06,16,11.80
2015,06,10,06,17,11.80
2015,06,10,06,18,11.80
2015,06,10,06,19,11.80
2015,06,10,06,20,11.80
2015,06,10,06,21,11.80
2015,06,10,06,22,11.90
2015,06,10,06,23,11.90
2015,06,10,06,24,11.90
2015,06,10,06,25,11.90
2015,06,10,06,26,11.90
2015,06,10,06,27,11.90
2015,06,10,06,28,12.00
2015,06,10,06,29,12.00
2015,06,10,06,30,12.10
2015,06,10,06,31,12.10
2015,06,10,06,32,12.10
2015,06,10,06,33,12.10
2015,06,10,06,34,12.10
2015,06,10,06,35,12.10
2015,06,10,06,36,12.10
2015,06,10,06,37,12.20
2015,06,10,06,38,12.20
2015,06,10,06,39,12.20
2015,06,10,06,40,12.30
2015,06,10,06,41,12.40
2015,06,10,06,42,12.50
2015,06,10,06,43,12.70
2015,06,10,06,44,12.80
2015,06,10,06,45,12.90
2015,06,10,06,46,12.90
2015,06,10,06,47,12.90
2015,06,10,06,48,13.00
2015,06,10,06,49,13.00
2015,06,10,06,50,13.00
2015,06,10,06,51,13.00
2015,06,10,06,52,13.10
2015,06,10,06,53,13.10
2015,06,10,06,54,13.10
2015,06,10,06,55,13.20
2015,06,10,06,56,13.30
2015,06,10,06,57,13.40
2015,06,10,06,58,13.40
2015,06,10,06,59,13.50
2015,06,10,07,00,13.50
2015,06,10,07,01,13.60
2015,06,10,07,02,13.60
2015,06,10,07,03,13.60
2015,06,10,07,04,13.60
2015,06,10,07,05,13.60
2015,06,10,07,06,13.70
2015,06,10,07,07,13.70
2015,06,10,07,08,13.70
2015,06,10,07,09,13.70
2015,06,10,07,10,13.80
2015,06,10,07,11,13.80
2015,06,10,07,12,13.90
2015,06,10,07,13,14.00
2015,06,10,07,14,14.10
2015,06,10,07,15,14.20
2015,06,10,07,16,14.30
2015,06,10,07,17,14.30
2015,06,10,07,18,14.40
2015,06,10,07,19,14.50
2015,06,10,07,20,14.50
2015,06,10,07,21,14.60
2015,06,10,07,22,14.70
2015,06,10,07,23,14.80
2015,06,10,07,24,14.90
2015,06,10,07,25,15.00
2015,06,10,07,26,15.10
2015,06,10,07,27,15.20
2015,06,10,07,28,15.30
2015,06,10,07,29,15.40
2015,06,10,07,30,15.50
2015,06,10,07,31,15.60
2015,06,10,07,32,15.70
2015,06,10,07,33,15.80
2015,06,10,07,34,15.90
2015,06,10,07,35,16.00
2015,06,10,07,36,16.00
2015,06,10,07,37,16.10
2015,06,10,07,38,16.20
2015,06,10,07,39,16.30
2015,06,10,07,40,16.30
2015,06,10,07,41,16.40
2015,06,10,07,42,16.40
2015,06,10,07,43,16.50
2015,06,10,07,44,16.60
2015,06,10,07,45,16.70
2015,06,10,07,46,16.70
2015,06,10,07,47,16.80
2015,06,10,07,48,16.90
2015,06,10,07,49,16.90
2015,06,10,07,50,17.00
2015,06,10,07,51,17.00
2015,06,10,07,52,17.10
2015,06,10,07,53,17.10
2015,06,10,07,54,17.20
2015,06,10,07,55,17.20
2015,06,10,07,56,17.20
2015,06,10,07,57,17.30
2015,06,10,07,58,17.30
2015,06,10,07,59,17.40
2015,06,10,08,00,17.40
2015,06,10,08,01,17.50
2015,06,10,08,02,17.60
2015,06,10,08,03,17.60
2015,06,10,08,04,17.60
2015,06,10,08,05,17.60
2015,06,10,08,06,17.70
2015,06,10,08,07,17.70
2015,06,10,08,08,17.70
2015,06,10,08,09,17.80
2015,06,10,08,10,17.80
2015,06,10,08,11,17.90
2015,06,10,08,12,17.80
2015,06,10,08,13,17.70
2015,06,10,08,14,17.50
2015,06,10,08,15,17.40
2015,06,10,08,16,17.20
2015,06,10,08,17,17.00
2015,06,10,08,18,16.80
2015,06,10,08,19,16.70
2015,06,10,08,20,16.50
2015,06,10,08,21,16.50
2015,06,10,08,22,16.40
2015,06,10,08,23,16.30
2015,06,10,08,24,16.20
2015,06,10,08,25,16.00
2015,06,10,08,26,15.90
2015,06,10,08,27,15.70
2015,06,10,08,28,15.60
2015,06,10,08,29,15.50
2015,06,10,08,30,15.30
2015,06,10,08,31,15.20
2015,06,10,08,32,15.10
2015,06,10,08,33,15.00
2015,06,10,08,34,14.90
2015,06,10,08,35,14.80
2015,06,10,08,36,14.80
2015,06,10,08,37,14.70
2015,06,10,08,38,14.60
2015,06,10,08,39,14.50
2015,06,10,08,40,14.40
2015,06,10,08,41,14.30
2015,06,10,08,42,14.20
2015,06,10,08,43,14.10
2015,06,10,08,44,14.10
2015,06,10,08,45,14.00
2015,06,10,08,46,13.90
2015,06,10,08,47,14.00
2015,06,10,08,48,14.00
2015,06,10,08,49,14.10
2015,06,10,08,50,14.10
2015,06,10,08,51,14.20
2015,06,10,08,52,14.20
2015,06,10,08,53,14.30
2015,06,10,08,54,14.30
2015,06,10,08,55,14.30
2015,06,10,08,56,14.30
2015,06,10,08,57,14.30
2015,06,10,08,58,14.40
2015,06,10,08,59,14.40
2015,06,10,09,00,14.30
2015,06,10,09,01,14.30
2015,06,10,09,02,14.40
2015,06,10,09,03,14.40
2015,06,10,09,04,14.40
2015,06,10,09,05,14.50
2015,06,10,09,06,14.50
2015,06,10,09,07,14.60
2015,06,10,09,08,14.70
2015,06,10,09,09,14.70
2015,06,10,09,10,14.70
2015,06,10,09,11,14.80
2015,06,10,09,12,14.80
2015,06,10,09,13,14.90
2015,06,10,09,14,15.00
2015,06,10,09,15,15.00
2015,06,10,09,16,15.10
2015,06,10,09,17,15.10
2015,06,10,09,18,15.20
2015,06,10,09,19,15.20
2015,06,10,09,20,15.30
2015,06,10,09,21,15.40
2015,06,10,09,22,15.50
2015,06,10,09,23,15.50
2015,06,10,09,24,15.60
2015,06,10,09,25,15.70
2015,06,10,09,26,15.80
2015,06,10,09,27,15.90
2015,06,10,09,28,15.90
2015,06,10,09,29,16.00
2015,06,10,09,30,16.10
2015,06,10,09,31,16.20
2015,06,10,09,32,16.30
2015,06,10,09,33,16.30
2015,06,10,09,34,16.40
2015,06,10,09,35,16.50
2015,06,10,09,36,16.50
2015,06,10,09,37,16.60
2015,06,10,09,38,16.70
2015,06,10,09,39,16.80
2015,06,10,09,40,16.80
2015,06,10,09,41,16.90
2015,06,10,09,42,17.00
2015,06,10,09,43,17.10
2015,06,10,09,44,17.20
2015,06,10,09,45,17.20
2015,06,10,09,46,17.30
2015,06,10,09,47,17.30
2015,06,10,09,48,17.30
2015,06,10,09,49,17.40
2015,06,10,09,50,17.40
2015,06,10,09,51,17.40
2015,06,10,09,52,17.50
2015,06,10,09,53,17.60
2015,06,10,09,54,17.60
2015,06,10,09,55,17.60
2015,06,10,09,56,17.70
2015,06,10,09,57,17.70
2015,06,10,09,58,17.80
2015,06,10,09,59,17.80
2015,06,10,10,00,17.90
2015,06,10,10,01,17.90
2015,06,10,10,02,17.90
2015,06,10,10,03,18.00
2015,06,10,10,04,18.00
2015,06,10,10,05,18.00
2015,06,10,10,06,18.00
2015,06,10,10,07,18.10
2015,06,10,10,08,18.10
2015,06,10,10,09,18.10
2015,06,10,10,10,18.10
2015,06,10,10,11,18.10
2015,06,10,10,12,18.00
2015,06,10,10,13,18.00
2015,06,10,10,14,18.00
2015,06,10,10,15,17.90
2015,06,10,10,16,17.90
2015,06,10,10,17,17.90
2015,06,10,10,18,17.80
2015,06,10,10,19,17.80
2015,06,10,10,20,17.70
2015,06,10,10,21,17.60
2015,06,10,10,22,17.60
2015,06,10,10,23,17.50
2015,06,10,10,24,17.50
2015,06,10,10,25,17.50
2015,06,10,10,26,17.50
2015,06,10,10,27,17.40
2015,06,10,10,28,17.40
2015,06,10,10,29,17.50
2015,06,10,10,30,17.50
2015,06,10,10,31,17.60
2015,06,10,10,32,17.70
2015,06,10,10,33,17.70
2015,06,10,10,34,17.70
2015,06,10,10,35,17.70
2015,06,10,10,36,17.70
2015,06,10,10,37,17.70
2015,06,10,10,38,17.70
2015,06,10,10,39,17.70
2015,06,10,10,40,17.80
2015,06,10,10,41,17.80
2015,06,10,10,42,17.90
2015,06,10,10,43,17.80
2015,06,10,10,44,17.80
2015,06,10,10,45,17.80
2015,06,10,10,46,17.80
2015,06,10,10,47,17.80
2015,06,10,10,48,17.90
2015,06,10,10,49,17.90
2015,06,10,10,50,17.90
2015,06,10,10,51,17.80
2015,06,10,10,52,17.80
2015,06,10,10,53,17.80
2015,06,10,10,54,17.80
2015,06,10,10,55,17.70
2015,06,10,10,56,17.70
2015,06,10,10,57,17.70
2015,06,10,10,58,17.60
2015,06,10,10,59,17.60
2015,06,10,11,00,17.50
2015,06,10,11,01,17.40
2015,06,10,11,02,17.40
2015,06,10,11,03,17.40
2015,06,10,11,04,17.40
2015,06,10,11,05,17.40
2015,06,10,11,06,17.30
2015,06,10,11,07,17.30
2015,06,10,11,08,17.20
2015,06,10,11,09,17.20
2015,06,10,11,10,17.20
2015,06,10,11,11,17.20
2015,06,10,11,12,17.20
2015,06,10,11,13,17.30
2015,06,10,11,14,17.30
2015,06,10,11,15,17.30
2015,06,10,11,16,17.40
2015,06,10,11,17,17.40
2015,06,10,11,18,17.50
2015,06,10,11,19,17.50
2015,06,10,11,20,17.60
2015,06,10,11,21,17.70
2015,06,10,11,22,17.70
2015,06,10,11,23,17.70
2015,06,10,11,24,17.70
2015,06,10,11,25,17.70
2015,06,10,11,26,17.70
2015,06,10,11,27,17.70
2015,06,10,11,28,17.70
2015,06,10,11,29,17.80
2015,06,10,11,30,17.80
2015,06,10,11,31,17.90
2015,06,10,11,32,17.90
2015,06,10,11,33,17.80
2015,06,10,11,34,17.90
2015,06,10,11,35,17.90
2015,06,10,11,36,17.90
2015,06,10,11,37,17.90
2015,06,10,11,38,18.00
2015,06,10,11,39,18.00
2015,06,10,11,40,17.90
2015,06,10,11,41,17.80
2015,06,10,11,42,17.70
2015,06,10,11,43,17.70
2015,06,10,11,44,17.70
2015,06,10,11,45,17.70
2015,06,10,11,46,17.80
2015,06,10,11,47,17.80
2015,06,10,11,48,17.90
2015,06,10,11,49,18.00
2015,06,10,11,50,18.10
2015,06,10,11,51,18.10
2015,06,10,11,52,18.10
2015,06,10,11,53,18.10
2015,06,10,11,54,18.10
2015,06,10,11,55,18.10
2015,06,10,11,56,18.00
2015,06,10,11,57,18.00
2015,06,10,11,58,18.00
2015,06,10,11,59,18.00
2015,06,10,12,00,18.10
2015,06,10,12,01,18.10
2015,06,10,12,02,18.10
2015,06,10,12,03,18.20
2015,06,10,12,04,18.20
2015,06,10,12,05,18.30
2015,06,10,12,06,18.40
2015,06,10,12,07,18.50
2015,06,10,12,08,18.60
2015,06,10,12,09,18.60
2015,06,10,12,10,18.60
2015,06,10,12,11,18.60
2015,06,10,12,12,18.70
2015,06,10,12,13,18.70
2015,06,10,12,14,18.60
2015,06,10,12,15,18.60
2015,06,10,12,16,18.50
2015,06,10,12,17,18.40
2015,06,10,12,18,18.30
2015,06,10,12,19,18.20
2015,06,10,12,20,18.10
2015,06,10,12,21,18.10
2015,06,10,12,22,18.20
2015,06,10,12,23,18.20
2015,06,10,12,24,18.30
2015,06,10,12,25,18.30
2015,06,10,12,26,18.40
2015,06,10,12,27,18.50
2015,06,10,12,28,18.50
2015,06,10,12,29,18.50
2015,06,10,12,30,18.60
2015,06,10,12,31,18.60
2015,06,10,12,32,18.60
2015,06,10,12,33,18.60
2015,06,10,12,34,18.60
2015,06,10,12,35,18.60
2015,06,10,12,36,18.60
2015,06,10,12,37,18.60
2015,06,10,12,38,18.60
2015,06,10,12,39,18.60
2015,06,10,12,40,18.60
2015,06,10,12,41,18.70
2015,06,10,12,42,18.70
2015,06,10,12,43,18.80
2015,06,10,12,44,18.80
2015,06,10,12,45,18.80
2015,06,10,12,46,18.80
2015,06,10,12,47,18.90
2015,06,10,12,48,18.90
2015,06,10,12,49,18.90
2015,06,10,12,50,18.90
2015,06,10,12,51,18.90
2015,06,10,12,52,19.00
2015,06,10,12,53,19.10
2015,06,10,12,54,19.10
2015,06,10,12,55,19.10
2015,06,10,12,56,19.00
2015,06,10,12,57,19.00
2015,06,10,12,58,18.90
2015,06,10,12,59,18.90
2015,06,10,13,00,18.80
2015,06,10,13,01,18.80
2015,06,10,13,02,18.80
2015,06,10,13,03,18.70
2015,06,10,13,04,18.60
2015,06,10,13,05,18.60
2015,06,10,13,06,18.60
2015,06,10,13,07,18.70
2015,06,10,13,08,18.70
2015,06,10,13,09,18.70
2015,06,10,13,10,18.80
2015,06,10,13,11,18.80
2015,06,10,13,12,18.80
2015,06,10,13,13,18.80
2015,06,10,13,14,18.80
2015,06,10,13,15,18.90
2015,06,10,13,16,19.00
2015,06,10,13,17,19.10
2015,06,10,13,18,19.30
2015,06,10,13,19,19.40
2015,06,10,13,20,19.40
2015,06,10,13,21,19.40
2015,06,10,13,22,19.30
2015,06,10,13,23,19.20
2015,06,10,13,24,19.20
2015,06,10,13,25,19.10
2015,06,10,13,26,19.00
2015,06,10,13,27,19.00
2015,06,10,13,28,18.90
2015,06,10,13,29,18.90
2015,06,10,13,30,18.80
2015,06,10,13,31,18.80
2015,06,10,13,32,18.80
2015,06,10,13,33,18.90
2015,06,10,13,34,19.00
2015,06,10,13,35,19.10
2015,06,10,13,36,19.20
2015,06,10,13,37,19.30
2015,06,10,13,38,19.30
2015,06,10,13,39,19.40
2015,06,10,13,40,19.50
2015,06,10,13,41,19.40
2015,06,10,13,42,19.40
2015,06,10,13,43,19.30
2015,06,10,13,44,19.30
2015,06,10,13,45,19.30
2015,06,10,13,46,19.20
2015,06,10,13,47,19.20
2015,06,10,13,48,19.20
2015,06,10,13,49,19.20
2015,06,10,13,50,19.30
2015,06,10,13,51,19.30
2015,06,10,13,52,19.40
2015,06,10,13,53,19.40
2015,06,10,13,54,19.40
2015,06,10,13,55,19.30
2015,06,10,13,56,19.30
2015,06,10,13,57,19.30
2015,06,10,13,58,19.30
2015,06,10,13,59,19.30
2015,06,10,14,00,19.30
2015,06,10,14,01,19.30
2015,06,10,14,02,19.20
2015,06,10,14,03,19.20
2015,06,10,14,04,19.20
2015,06,10,14,05,19.20
2015,06,10,14,06,19.20
2015,06,10,14,07,19.20
2015,06,10,14,08,19.20
2015,06,10,14,09,19.30
2015,06,10,14,10,19.30
2015,06,10,14,11,19.30
2015,06,10,14,12,19.30
2015,06,10,14,13,19.30
2015,06,10,14,14,19.30
2015,06,10,14,15,19.30
2015,06,10,14,16,19.30
2015,06,10,14,17,19.20
2015,06,10,14,18,19.20
2015,06,10,14,19,19.20
2015,06,10,14,20,19.20
2015,06,10,14,21,19.20
2015,06,10,14,22,19.20
2015,06,10,14,23,19.20
2015,06,10,14,24,19.20
2015,06,10,14,25,19.30
2015,06,10,14,26,19.20
2015,06,10,14,27,19.20
2015,06,10,14,28,19.20
2015,06,10,14,29,19.20
2015,06,10,14,30,19.10
2015,06,10,14,31,19.20
2015,06,10,14,32,19.20
2015,06,10,14,33,19.30
2015,06,10,14,34,19.30
2015,06,10,14,35,19.30
2015,06,10,14,36,19.20
2015,06,10,14,37,19.20
2015,06,10,14,38,19.10
2015,06,10,14,39,19.00
2015,06,10,14,40,19.00
2015,06,10,14,41,19.00
2015,06,10,14,42,19.00
2015,06,10,14,43,19.10
2015,06,10,14,44,19.10
2015,06,10,14,45,19.20
2015,06,10,14,46,19.30
2015,06,10,14,47,19.40
2015,06,10,14,48,19.40
2015,06,10,14,49,19.40
2015,06,10,14,50,19.30
2015,06,10,14,51,19.30
2015,06,10,14,52,19.20
2015,06,10,14,53,19.20
2015,06,10,14,54,19.20
2015,06,10,14,55,19.10
2015,06,10,14,56,19.10
2015,06,10,14,57,18.90
2015,06,10,14,58,18.80
2015,06,10,14,59,18.70
2015,06,10,15,00,18.60
2015,06,10,15,01,18.60
2015,06,10,15,02,18.60
2015,06,10,15,03,18.60
2015,06,10,15,04,18.60
2015,06,10,15,05,18.60
2015,06,10,15,06,18.40
2015,06,10,15,07,18.30
2015,06,10,15,08,18.20
2015,06,10,15,09,18.20
2015,06,10,15,10,18.30
2015,06,10,15,11,18.40
2015,06,10,15,12,18.50
2015,06,10,15,13,18.60
2015,06,10,15,14,18.60
2015,06,10,15,15,18.70
2015,06,10,15,16,18.70
2015,06,10,15,17,18.70
2015,06,10,15,18,18.70
2015,06,10,15,19,18.70
2015,06,10,15,20,18.60
2015,06,10,15,21,18.60
2015,06,10,15,22,18.60
2015,06,10,15,23,18.70
2015,06,10,15,24,18.80
2015,06,10,15,25,18.80
2015,06,10,15,26,18.80
2015,06,10,15,27,18.90
2015,06,10,15,28,18.90
2015,06,10,15,29,18.90
2015,06,10,15,30,18.80
2015,06,10,15,31,18.80
2015,06,10,15,32,18.80
2015,06,10,15,33,18.80
2015,06,10,15,34,18.80
2015,06,10,15,35,18.90
2015,06,10,15,36,18.90
2015,06,10,15,37,19.00
2015,06,10,15,38,19.00
2015,06,10,15,39,19.10
2015,06,10,15,40,19.20
2015,06,10,15,41,19.20
2015,06,10,15,42,19.20
2015,06,10,15,43,19.20
2015,06,10,15,44,19.10
2015,06,10,15,45,19.10
2015,06,10,15,46,19.10
2015,06,10,15,47,19.10
2015,06,10,15,48,19.20
2015,06,10,15,49,19.30
2015,06,10,15,50,19.40
2015,06,10,15,51,19.40
2015,06,10,15,52,19.50
2015,06,10,15,53,19.60
2015,06,10,15,54,19.60
2015,06,10,15,55,19.60
2015,06,10,15,56,19.70
2015,06,10,15,57,19.70
2015,06,10,15,58,19.80
2015,06,10,15,59,19.80
2015,06,10,16,00,19.80
2015,06,10,16,01,19.80
2015,06,10,16,02,19.90
2015,06,10,16,03,19.90
2015,06,10,16,04,19.90
2015,06,10,16,05,20.00
2015,06,10,16,06,20.10
2015,06,10,16,07,20.20
2015,06,10,16,08,20.20
2015,06,10,16,09,20.30
2015,06,10,16,10,20.40
2015,06,10,16,11,20.40
2015,06,10,16,12,20.40
2015,06,10,16,13,20.40
2015,06,10,16,14,20.40
2015,06,10,16,15,20.30
2015,06,10,16,16,20.30
2015,06,10,16,17,20.20
2015,06,10,16,18,20.10
2015,06,10,16,19,20.00
2015,06,10,16,20,19.90
2015,06,10,16,21,19.80
2015,06,10,16,22,19.60
2015,06,10,16,23,19.50
2015,06,10,16,24,19.40
2015,06,10,16,25,19.30
2015,06,10,16,26,19.40
2015,06,10,16,27,19.40
2015,06,10,16,28,19.40
2015,06,10,16,29,19.40
2015,06,10,16,30,19.40
2015,06,10,16,31,19.40
2015,06,10,16,32,19.30
2015,06,10,16,33,19.20
2015,06,10,16,34,19.20
2015,06,10,16,35,19.30
2015,06,10,16,36,19.30
2015,06,10,16,37,19.30
2015,06,10,16,38,19.30
2015,06,10,16,39,19.40
2015,06,10,16,40,19.50
2015,06,10,16,41,19.60
2015,06,10,16,42,19.60
2015,06,10,16,43,19.70
2015,06,10,16,44,19.70
2015,06,10,16,45,19.80
2015,06,10,16,46,19.80
2015,06,10,16,47,19.90
2015,06,10,16,48,20.00
2015,06,10,16,49,20.00
2015,06,10,16,50,20.10
2015,06,10,16,51,20.30
2015,06,10,16,52,20.30
2015,06,10,16,53,20.30
2015,06,10,16,54,20.30
2015,06,10,16,55,20.30
2015,06,10,16,56,20.40
2015,06,10,16,57,20.40
2015,06,10,16,58,20.40
2015,06,10,16,59,20.40
2015,06,10,17,00,20.30
2015,06,10,17,01,20.30
2015,06,10,17,02,20.30
2015,06,10,17,03,20.30
2015,06,10,17,04,20.30
2015,06,10,17,05,20.40
2015,06,10,17,06,20.50
2015,06,10,17,07,20.50
2015,06,10,17,08,20.60
2015,06,10,17,09,20.70
2015,06,10,17,10,21.10
2015,06,10,17,11,21.50
2015,06,10,17,12,21.90
2015,06,10,17,13,22.30
2015,06,10,17,14,22.70
2015,06,10,17,15,23.00
2015,06,10,17,16,23.30
2015,06,10,17,17,23.50
2015,06,10,17,18,23.60
2015,06,10,17,19,23.70